Location: Unspecified
(40.9447°N, 78.9903°W)
Time: 01:26:08
(UTC-04:00)

Okean 3 - Pass Details

Date: 04 August 2021
Orbit: 574 x 601 km, 82.5° (Epoch: 19 September)

Event Time Altitude Azimuth Distance (km) Brightness Sun altitude
Rises 01:52:55 0° 345° (NNW) 2,840 7.9 -31.5°
Reaches altitude 10° 01:55:12 10° 340° (NNW) 1,929 6.8 -31.4°
Enters shadow 01:56:53 22° 330° (NNW) 1,306 5.6 -31.3°
